闪电 3-24星 (MOLNIYA 3-24)

导读 | 豆包AI

MOLNIYA 3-24(闪电3-24)属于苏联/俄罗斯闪电三号(Molniya‑3)系列通信卫星,由独联体(CIS)关联机构继承发射任务,1985年5月29日在普列谢茨克发射场成功送入太空。该卫星基于KAUR‑2平台研制,发射质量约1740千克,设计寿命3年,运行在高偏心率闪电轨道,配备多路C频段转发器,主要承担前苏联/俄罗斯区域通信、电视转播业务,助力高纬度地区通信覆盖。

基本信息
目录编号:
15738
目录名称:
MOLNIYA 3-24
国际标识:
1985-040A
轨道中心:
EARTH
卫星名称:
闪电 3-24星
卫星全名:
闪电 3-24星 (MOLNIYA 3-24)
卫星状态:
在轨 (已飞行14899 天)
发射日期:
1985-05-29 UTC
国别 :
俄罗斯(独联体) (CIS)
星等 :
--
轨道信息
数据来源 国际轨道数据
星历时间: 2026-03-11T16:04:33+0800
2天前
查看轨道信息
半长轴: 22591.552km
偏心率: 0.6889717
轨道倾角: 62.373°
近地点辐角 256.518°
升交点赤经 172.262°
平近点角 24.020°
近地点: 648.475km
远地点: 31778.355km
周期: 563.221分钟
每日圈数: 2.556723
详细信息
平衡模式:
三轴稳定
覆盖范围:
全球
运营商:
俄罗斯国家航天集团
运营商所在国:
俄罗斯
制造商(研发单位):
普里克拉德诺伊·梅哈尼基设计局
制造商所在国:
俄罗斯联邦
使用方式:
暂无
卫星简介
闪电(Molniya (Satellite))系列卫星是苏联/俄罗斯于1965年至2004年间发射的军事和通信卫星。这些卫星使用高度偏心的椭圆轨道,称为Molniya轨道(即闪电轨道),在高纬度地区具有较长的停留时间。该卫星状态未知。
2D轨道图
3D轨道图
轨道高度分析图
轨道倾角分析图
轨道综合分析图
查看轨道综合分析图